EW5393 Weather Reports


Display with metric or nautical units.
time (UTC)temp
F
wind
direction
speed
MPH
gust
MPH
rain 1hr
in
rain 24hr
in
rain mn
in
humidity
%
barometer
mb
20260502191304 63 271 4.0 9.0 0.00 0.00 0.00 39 1019.2
20260502190804 63 283 6.0 12.0 0.00 0.00 0.00 40 1019.2
20260502190304 64 292 2.0 5.0 0.00 0.00 0.00 39 1019.3
20260502185804 64 275 3.0 8.0 0.00 0.00 0.00 38 1019.4
20260502184804 64 269 5.0 9.0 0.00 0.00 0.00 39 1019.4
20260502184304 64 303 2.0 9.0 0.00 0.00 0.00 46 1019.5
20260502183304 63 287 2.0 12.0 0.00 0.00 0.00 38 1019.6
20260502182804 63 294 5.0 12.0 0.00 0.00 0.00 43 1019.7
20260502182305 64 258 2.0 8.0 0.00 0.00 0.00 38 1020.0
20260502181804 64 276 5.0 12.0 0.00 0.00 0.00 41 1020.0
20260502181304 63 271 3.0 8.0 0.00 0.00 0.00 39 1020.0
20260502180804 63 289 4.0 8.0 0.00 0.00 0.00 40 1020.2
20260502180305 64 273 3.0 8.0 0.00 0.00 0.00 38 1020.2
20260502170304 61 303 2.0 3.0 0.00 0.00 0.00 44 1020.6
20260502164304 62 15 1.0 6.0 0.00 0.00 0.00 40 1020.6
20260502163804 62 276 2.0 6.0 0.00 0.00 0.00 42 1020.8
20260502163304 62 153 0.0 2.0 0.00 0.00 0.00 42 1020.9
20260502162804 61 273 2.0 3.0 0.00 0.00 0.00 42 1020.9
20260502162305 61 267 1.0 3.0 0.00 0.00 0.00 42 1020.7
20260502160804 58 265 2.0 5.0 0.00 0.00 0.00 47 1020.9
20260502160304 56 282 1.0 2.0 0.00 0.00 0.00 49 1021.1
20260502152305 54 186 1.0 2.0 0.00 0.00 0.00 52 1021.3
20260502151304 53 200 1.0 2.0 0.00 0.00 0.00 53 1021.1
20260502150804 52 139 1.0 1.0 0.00 0.00 0.00 54 1021.1
20260502150304 52 150 1.0 2.0 0.00 0.00 0.00 54 1021.2
20260502130304 47 29 0.0 0.0 0.00 0.00 0.00 65 1020.7
20260502123804 47 41 0.0 1.0 0.00 0.00 0.00 66 1020.8
20260502123304 47 41 0.0 1.0 0.00 0.00 0.00 65 1020.7
20260502122804 47 76 0.0 1.0 0.00 0.00 0.00 65 1020.7
20260502122306 47 96 0.0 2.0 0.00 0.00 0.00 65 1020.8
20260502121305 47 100 1.0 3.0 0.00 0.00 0.00 65 1020.7
20260502120803 47 100 1.0 3.0 0.00 0.00 0.00 65 1020.7
20260502120304 47 97 1.0 3.0 0.00 0.00 0.00 65 1020.8
20260502115803 47 94 2.0 3.0 0.00 0.00 0.00 65 1020.8
20260502115306 47 104 1.0 3.0 0.00 0.00 0.00 65 1020.7
20260502114804 47 100 2.0 3.0 0.00 0.00 0.00 65 1020.8
20260502114304 47 99 1.0 3.0 0.00 0.00 0.00 65 1020.8
20260502113304 47 100 1.0 2.0 0.00 0.00 0.00 65 1020.7
20260502112804 47 86 1.0 2.0 0.00 0.00 0.00 65 1020.8
20260502112306 48 103 2.0 5.0 0.00 0.00 0.00 65 1020.8
20260502111804 48 97 2.0 3.0 0.00 0.00 0.00 66 1020.7
20260502110804 48 94 1.0 5.0 0.00 0.00 0.00 66 1020.9
20260502105803 48 31 1.0 5.0 0.00 0.00 0.00 65 1020.7
20260502105306 48 96 1.0 3.0 0.00 0.00 0.00 65 1020.7
20260502104804 48 50 0.0 3.0 0.00 0.00 0.00 65 1020.8
20260502104304 48 23 1.0 2.0 0.00 0.00 0.00 65 1020.7
20260502103304 48 44 1.0 2.0 0.00 0.00 0.00 65 1020.7
20260502102803 48 22 1.0 2.0 0.00 0.00 0.00 65 1020.7
20260502101804 49 61 1.0 3.0 0.00 0.00 0.00 66 1020.5
20260502101304 49 104 1.0 3.0 0.00 0.00 0.00 66 1020.7
20260502100804 49 39 1.0 2.0 0.00 0.00 0.00 66 1020.8
20260502100304 49 113 1.0 3.0 0.00 0.00 0.00 66 1020.8
20260502091304 50 74 1.0 3.0 0.00 0.00 0.00 60 1020.6
20260502090304 50 9 2.0 5.0 0.00 0.00 0.00 61 1020.4
20260502071304 50 49 1.0 2.0 0.00 0.00 0.00 59 1020.3
20260502070804 50 51 0.0 1.0 0.00 0.00 0.00 59 1020.1
20260502065804 50 30 1.0 2.0 0.00 0.00 0.00 58 1020.1
20260502065306 50 41 0.0 2.0 0.00 0.00 0.00 58 1020.0
20260502064803 50 47 1.0 2.0 0.00 0.00 0.00 58 1020.3
20260502064305 50 48 1.0 1.0 0.00 0.00 0.00 58 1020.1
20260502063804 50 56 1.0 2.0 0.00 0.00 0.00 58 1020.0
20260502063304 50 52 1.0 2.0 0.00 0.00 0.00 58 1020.2
20260502062804 50 10 1.0 2.0 0.00 0.00 0.00 58 1020.0
20260502062306 50 57 1.0 3.0 0.00 0.00 0.00 58 1020.2
20260502061304 51 65 0.0 3.0 0.00 0.00 0.00 59 1020.2
20260502060804 51 50 1.0 2.0 0.00 0.00 0.00 59 1020.0
20260502060305 51 103 1.0 2.0 0.00 0.00 0.00 58 1019.9
20260502055804 50 55 1.0 2.0 0.00 0.00 0.00 59 1020.0
20260502054803 50 27 1.0 2.0 0.00 0.00 0.00 59 1020.2
20260502054305 50 42 1.0 3.0 0.00 0.00 0.00 60 1019.9
20260502053804 50 44 1.0 2.0 0.00 0.00 0.00 59 1019.7
20260502052804 50 102 1.0 5.0 0.00 0.00 0.00 60 1019.6
20260502052306 50 108 2.0 3.0 0.00 0.00 0.00 60 1019.6
20260502051804 50 37 1.0 2.0 0.00 0.00 0.00 58 1019.7
20260502051304 51 57 0.0 2.0 0.00 0.00 0.00 58 1019.8
20260502050804 51 77 1.0 3.0 0.00 0.00 0.00 58 1019.7
20260502045804 51 78 2.0 5.0 0.00 0.00 0.00 58 1019.4
20260502045306 51 106 1.0 6.0 0.00 0.00 0.00 57 1019.5
20260502044804 51 97 3.0 7.0 0.00 0.00 0.00 58 1019.5
20260502044304 52 107 2.0 5.0 0.00 0.00 0.00 57 1019.3
20260502043803 52 119 3.0 6.0 0.00 0.00 0.00 57 1019.4
20260502043304 52 105 2.0 5.0 0.00 0.00 0.00 56 1019.4
20260502042804 52 83 3.0 7.0 0.00 0.00 0.00 56 1019.3
20260502041804 53 129 3.0 8.0 0.00 0.00 0.00 55 1019.3
20260502041304 53 109 3.0 7.0 0.00 0.00 0.00 55 1019.2
20260502040804 53 85 3.0 9.0 0.00 0.00 0.00 55 1019.3
20260502040304 53 119 5.0 10.0 0.00 0.00 0.00 55 1019.0
20260502035804 53 114 5.0 12.0 0.00 0.00 0.00 54 1019.1
20260502035306 53 119 4.0 12.0 0.00 0.00 0.00 54 1019.1
20260502034804 54 106 5.0 10.0 0.00 0.00 0.00 54 1018.8
20260502034303 54 127 4.0 13.0 0.00 0.00 0.00 53 1018.8
20260502033304 54 157 5.0 13.0 0.00 0.00 0.00 52 1018.8
20260502032805 54 135 5.0 12.0 0.00 0.00 0.00 52 1018.6
20260502032306 54 137 3.0 14.0 0.00 0.00 0.00 52 1018.5
20260502031804 54 117 6.0 15.0 0.00 0.00 0.00 52 1018.3
20260502030805 55 126 6.0 16.0 0.00 0.00 0.00 51 1018.4
20260502030304 55 109 7.0 14.0 0.00 0.00 0.00 51 1018.2
20260502025804 55 139 5.0 14.0 0.00 0.00 0.00 51 1018.0
20260502025306 55 95 9.0 16.0 0.00 0.00 0.00 50 1017.9
20260502024804 56 119 6.0 16.0 0.00 0.00 0.00 50 1017.8
20260502024305 56 102 6.0 18.0 0.00 0.00 0.00 48 1017.7
20260502023804 56 104 9.0 18.0 0.00 0.00 0.00 48 1017.7
20260502022306 59 117 6.0 21.0 0.00 0.00 0.00 44 1017.5
20260502021804 61 122 7.0 16.0 0.00 0.00 0.00 41 1017.1
20260502020804 62 112 3.0 6.0 0.00 0.00 0.00 33 1016.8
20260502020304 62 125 2.0 5.0 0.00 0.00 0.00 33 1016.6
20260502015804 62 92 3.0 8.0 0.00 0.00 0.00 32 1016.6
20260502015305 62 104 2.0 6.0 0.00 0.00 0.00 32 1016.7
20260502014803 63 103 2.0 5.0 0.00 0.00 0.00 32 1016.5
20260502013804 63 106 3.0 7.0 0.00 0.00 0.00 31 1016.5
20260502013304 63 97 3.0 8.0 0.00 0.00 0.00 31 1016.4
20260502012804 63 103 2.0 6.0 0.00 0.00 0.00 31 1016.4
20260502012306 63 93 3.0 7.0 0.00 0.00 0.00 30 1016.4
20260502011803 64 138 2.0 7.0 0.00 0.00 0.00 30 1016.3
20260502010804 64 108 2.0 6.0 0.00 0.00 0.00 30 1016.3
20260502010304 64 135 2.0 6.0 0.00 0.00 0.00 29 1016.4
20260502005306 64 120 3.0 7.0 0.00 0.00 0.00 30 1016.4
20260502004804 64 117 3.0 8.0 0.00 0.00 0.00 29 1016.3
20260502004304 64 97 3.0 8.0 0.00 0.00 0.00 29 1016.1
20260502003804 64 107 3.0 8.0 0.00 0.00 0.00 29 1016.3
20260502003304 64 112 3.0 8.0 0.00 0.00 0.00 30 1016.3
20260502002804 64 110 2.0 7.0 0.00 0.00 0.00 29 1016.3
20260502002305 65 105 5.0 10.0 0.00 0.00 0.00 29 1016.3
20260502001304 65 134 3.0 12.0 0.00 0.00 0.00 29 1016.0
20260502000804 65 148 4.0 14.0 0.00 0.00 0.00 29 1016.1
20260502000304 66 123 1.0 5.0 0.00 0.00 0.00 27 1016.0
20260501235804 66 108 2.0 5.0 0.00 0.00 0.00 26 1016.0
20260501235305 66 112 3.0 7.0 0.00 0.00 0.00 26 1015.9
20260501234804 66 147 1.0 6.0 0.00 0.00 0.00 26 1016.0
20260501233804 67 120 2.0 7.0 0.00 0.00 0.00 26 1015.9
20260501233303 67 118 3.0 7.0 0.00 0.00 0.00 26 1015.8
20260501232804 68 104 3.0 8.0 0.00 0.00 0.00 25 1015.6
20260501232306 68 125 2.0 5.0 0.00 0.00 0.00 26 1015.7
20260501231804 68 114 1.0 5.0 0.00 0.00 0.00 26 1016.0
20260501231304 68 102 2.0 7.0 0.00 0.00 0.00 25 1016.0
20260501230804 68 190 2.0 7.0 0.00 0.00 0.00 25 1015.9
20260501230304 69 139 2.0 7.0 0.00 0.00 0.00 25 1015.9
20260501225804 68 53 1.0 2.0 0.00 0.00 0.00 24 1015.9
20260501225306 68 125 2.0 8.0 0.00 0.00 0.00 24 1016.0
20260501224804 69 108 3.0 8.0 0.00 0.00 0.00 24 1016.0
20260501224304 69 103 2.0 7.0 0.00 0.00 0.00 24 1016.0
20260501223804 69 114 2.0 5.0 0.00 0.00 0.00 23 1016.0
20260501223304 70 135 0.0 3.0 0.00 0.00 0.00 23 1016.2
20260501222804 70 118 1.0 5.0 0.00 0.00 0.00 24 1016.1
20260501222305 70 102 3.0 5.0 0.00 0.00 0.00 25 1016.0
20260501221804 70 102 2.0 6.0 0.00 0.00 0.00 24 1016.0
20260501221303 70 105 3.0 7.0 0.00 0.00 0.00 24 1016.0
20260501220803 70 39 1.0 5.0 0.00 0.00 0.00 26 1016.0
20260501220304 70 29 3.0 8.0 0.00 0.00 0.00 25 1016.0
20260501215305 70 102 3.0 7.0 0.00 0.00 0.00 24 1016.0
20260501214804 70 51 2.0 8.0 0.00 0.00 0.00 26 1016.2
20260501213804 70 110 3.0 8.0 0.00 0.00 0.00 23 1016.1
20260501213304 71 108 3.0 9.0 0.00 0.00 0.00 23 1016.2
20260501212804 70 61 1.0 8.0 0.00 0.00 0.00 24 1016.3
20260501212306 71 72 4.0 8.0 0.00 0.00 0.00 24 1016.1
20260501211804 71 118 2.0 8.0 0.00 0.00 0.00 24 1016.0
20260501211304 70 16 1.0 3.0 0.00 0.00 0.00 24 1016.1
20260501210804 70 294 3.0 8.0 0.00 0.00 0.00 24 1016.2
20260501210304 70 35 5.0 12.0 0.00 0.00 0.00 24 1016.3
20260501205306 71 44 2.0 7.0 0.00 0.00 0.00 24 1016.4
20260501204804 71 107 3.0 9.0 0.00 0.00 0.00 23 1016.3
20260501204304 71 73 5.0 10.0 0.00 0.00 0.00 23 1016.1
20260501203304 72 355 2.0 5.0 0.00 0.00 0.00 24 1016.2
20260501202804 72 57 2.0 7.0 0.00 0.00 0.00 24 1016.1
20260501202306 72 41 3.0 10.0 0.00 0.00 0.00 23 1016.3
20260501201804 72 123 3.0 8.0 0.00 0.00 0.00 24 1016.3
20260501200304 73 353 4.0 12.0 0.00 0.00 0.00 22 1016.2
20260501195804 72 27 3.0 9.0 0.00 0.00 0.00 23 1016.0
20260501194804 72 85 4.0 10.0 0.00 0.00 0.00 23 1016.2
20260501194303 71 35 3.0 18.0 0.00 0.00 0.00 24 1016.1
20260501193804 71 78 3.0 13.0 0.00 0.00 0.00 23 1016.2
20260501193304 71 84 3.0 10.0 0.00 0.00 0.00 25 1016.0
20260501192804 71 349 3.0 9.0 0.00 0.00 0.00 25 1016.2
20260501192306 72 55 4.0 12.0 0.00 0.00 0.00 25 1016.2